Presure
314 295 287 267 265 272 263 271 282 157 317 341 262 164 327 168 179 98 182 185 182 168 161 179 171 186 152 127 182 142 179 149 176 161 175 178 192 200 233 223 224 202 213
303 285 268 263 267 260 264 263 277 306 339 304 462 407 321 367 188 222 197 201 208 186 165 184 182 187 172 159 126 158 150 148 160 187 177 156 200 155 143 209 190 221 229
290 282 270 266 254 264 259 254 273 289 349 405 467 464 97 177 244 201 209 208 204 193 180 171 148 166 180 191 144 173 152 170 163 183 152 159 171 157 145 171 174 210 213
289 270 265 249 259 253 267 276 276 287 297 334 331 341 424 444 240 207 203 197 189 187 192 183 164 170 180 168 184 156 165 165 148 162 177 143 171 152 181 177 179 187 165
278 276 263 267 255 265 277 278 278 297 315 322 342 335 363 419 419 234 211 190 192 180 168 181 182 183 182 188 185 171 172 179 154 151 144 164 170 177 163 179 163 184 179
288 273 264 249 252 262 270 280 279 286 298 318 334 320 308 377 344 231 225 204 201 201 173 167 166 194 180 147 163 172 187 170 181 148 161 173 164 192 153 172 187 217 213
290 276 263 243 253 265 268 265 272 276 291 303 336 317 312 368 331 256 216 196 192 189 193 183 181 167 179 180 190 175 185 148 180 177 177 159 178 193 153 157 175 188 181
296 276 263 251 248 263 266 261 265 263 276 284 299 289 297 324 223 232 212 204 194 190 177 190 193 166 179 205 178 142 156 167 178 183 174 181 193 173 157 207 210 202 191
298 294 261 263 253 260 261 273 266 264 269 286 276 278 264 244 304 224 195 178 197 198 195 175 183 200 180 166 185 184 175 160 188 182 208 178 182 182 182 175 170 198 189
319 301 276 257 265 254 257 263 264 277 276 268 282 270 235 299 237 210 193 193 195 228 187 186 173 210 206 194 174 180 165 174 191 192 156 166 203 202 205 199 186 167 186
324 319 291 268 264 258 263 264 257 272 276 270 278 275 252 220 203 197 192 194 189 198 198 182 187 191 187 184 192 185 175 194 187 194 187 179 177 179 177 184 187 205 203
264 330 307 281 267 262 263 265 267 282 271 271 276 231 223 222 206 193 202 186 239 200 189 191 206 198 194 216 190 177 197 185 190 169 168 212 208 220 203 203 214 218 221
310 293 326 344 274 269 268 267 269 265 273 286 237 216 208 212 195 206 229 203 189 218 212 198 204 201 231 192 212 171 175 186 214 213 211 192 182 201 187 222 203 177 192
305 299 293 313 323 243 275 270 268 265 245 292 264 207 211 212 226 214 203 206 217 201 224 195 216 213 220 236 188 224 206 196 196 180 182 191 204 183 195 209 203 210 219
286 271 296 282 312 235 268 276 296 260 238 290 233 196 215 220 208 212 204 213 203 188 201 219 206 189 213 215 188 188 214 189 219 194 185 216 215 210 201 217 220 203 195
330 334 278 265 272 269 359 261 287 275 230 287 226 234 204 218 210 211 221 219 220 207 230 218 221 193 201 208 216 212 210 208 233 217 211 200 189 212 207 206 233 225 198
301 306 309 314 313 294 333 273 287 268 220 229 205 239 231 203 227 208 216 212 237 222 205 214 206 224 226 206 192 194 189 198 236 212 188 222 216 233 221 204 212 235 215
290 291 290 300 300 290 291 318 231 318 269 211 227 222 210 205 216 194 222 210 224 210 237 210 247 210 198 226 232 206 237 221 222 211 216 213 239 226 229 212 220 213 204
268 275 278 280 285 292 282 267 280 241 279 249 272 228 232 206 214 222 190 197 195 234 226 215 197 198 201 221 238 201 214 226 204 208 224 227 205 242 227 207 222 237 221
258 260 267 269 274 277 281 289 293 289 266 227 279 226 220 225 226 217 251 227 216 214 217 215 240 234 217 239 215 213 216 214 220 233 204 217 203 203 236 232 227 211 226
254 255 256 265 268 268 268 268 280 283 286 299 284 223 230 260 235 228 220 216 239 229 250 221 226 236 228 249 238 233 209 230 233 230 249 217 230 226 215 243 257 229 237
250 255 256 258 261 263 266 270 276 276 287 290 295 301 305 302 240 223 226 238 236 237 260 264 242 228 225 224 246 247 247 239 221 232 250 246 234 238 243 242 240 240 246
234 249 255 254 256 260 255 264 268 268 272 274 277 278 286 302 311 301 296 348 367 352 366 387 338 323 326 321 325 331 329 322 275 260 260 268 263 247 252 246 245 277 287
251 255 253 253 253 256 260 262 266 268 277 278 265 275 277 296 302 303 338 317 397 403 406 407 406 415 411 414 389 384 380 378 397 380 418 424 468 459 438 425 410 397 393
241 254 254 252 253 259 263 259 261 266 275 271 276 268 284 286 292 310 319 341 385 395 405 418 426 429 428 424 422 422 422 423 423 441 430 420 414 415 442 421 410 399 389
247 246 253 254 246 254 262 264 264 267 272 275 279 279 282 285 300 304 320 347 381 395 430 436 438 439 440 442 447 455 459 472 480 486 487 496 515 414 461 427 406 394 381
Wind_Speed
41 42 42 45 48 51 46 50 59 44 62 72 56 32 69 45 80 34 100 93 85 71 71 86 78 79 63 33 65 52 82 55 79 50 72 64 59 65 54 53 55 57 55
41 40 43 45 47 48 53 50 65 71 47 50 49 77 81 86 95 115 107 107 103 87 78 83 74 78 89 76 41 75 54 40 63 87 77 58 62 45 46 61 59 55 53
41 39 42 44 44 48 51 45 62 38 32 18 21 40 41 52 115 109 115 115 93 105 94 84 59 74 63 70 47 84 52 78 79 83 46 45 73 54 51 59 59 63 50
41 42 41 43 44 45 53 40 39 35 28 17 21 14 15 57 118 114 116 112 99 91 107 93 77 77 80 70 85 67 85 63 63 72 82 45 80 53 79 62 63 67 54
42 42 42 44 45 47 38 32 31 26 27 30 26 26 23 31 47 118 117 102 104 92 73 95 102 79 82 76 79 87 91 84 49 58 50 63 63 84 62 81 60 64 63
42 44 41 40 42 40 35 21 24 22 26 30 27 18 26 21 54 120 124 118 114 105 86 69 74 88 81 40 61 86 81 71 92 48 66 104 52 97 51 73 81 73 73
44 44 41 40 41 38 34 25 24 20 23 27 12 8 19 28 49 113 122 109 104 107 108 96 90 77 85 75 89 74 87 63 95 101 98 54 95 96 51 57 63 87 69
44 47 44 41 39 37 34 30 28 23 20 12 4 17 17 23 92 112 113 115 112 104 87 102 84 68 91 87 74 38 43 67 87 94 74 88 104 70 63 90 92 94 89
47 48 46 45 41 41 37 30 33 27 22 15 23 29 57 79 59 111 94 75 117 117 119 81 99 106 101 68 93 90 87 64 97 87 96 71 86 83 76 58 66 98 73
49 48 52 45 43 44 42 36 33 29 26 25 28 34 82 43 102 104 103 111 112 112 105 100 80 99 99 99 91 95 64 63 95 102 53 62 76 96 97 97 58 54 56
38 46 51 50 47 46 46 39 42 34 31 36 34 43 73 98 99 96 99 113 106 107 118 93 101 110 104 104 107 98 75 99 82 95 73 61 53 56 58 65 72 116 97
35 38 49 53 50 49 50 46 43 33 36 44 42 83 99 106 113 93 114 84 100 118 106 99 97 115 115 102 109 83 110 80 80 54 58 119 112 120 114 105 123 118 111
38 36 37 40 52 50 54 52 48 51 47 45 76 103 103 112 96 118 106 120 73 121 130 125 99 116 98 107 110 67 68 82 108 118 117 60 55 83 55 122 100 58 67
33 35 34 37 40 48 53 57 60 61 85 52 67 92 104 114 118 126 101 128 109 115 113 99 120 116 116 105 85 115 113 83 76 61 59 74 102 73 73 95 76 90 105
28 31 32 34 37 46 54 57 59 56 94 58 106 57 113 118 101 100 93 132 110 64 93 132 110 75 104 116 80 77 106 84 129 90 75 123 125 101 79 112 112 79 68
15 15 31 32 36 45 20 59 57 72 91 67 104 117 72 122 89 115 141 93 97 113 133 123 136 89 91 93 113 110 102 94 130 120 107 85 70 111 107 99 131 127 84
12 12 13 15 17 34 20 58 52 75 58 106 77 117 118 64 130 77 106 91 136 129 82 122 85 131 136 99 75 74 70 80 138 111 73 132 121 139 121 95 102 136 114
9 11 11 13 14 17 26 21 55 32 72 79 108 112 74 76 96 54 116 97 130 105 132 100 132 104 82 132 140 95 141 125 117 102 107 102 146 136 133 103 115 113 89
11 11 12 13 14 17 23 34 47 73 66 99 81 112 122 84 96 117 66 76 67 148 144 116 79 76 91 119 148 100 106 132 99 108 117 138 100 150 141 105 125 151 138
13 14 16 17 18 19 21 24 27 34 75 62 84 117 113 119 119 111 135 130 127 126 129 125 141 143 128 157 134 122 128 119 135 145 89 128 92 94 159 149 141 121 135
18 19 21 21 22 23 24 25 27 28 32 36 56 85 100 129 132 130 126 102 131 131 150 135 142 142 142 163 155 152 101 149 150 147 164 125 153 152 116 159 158 148 149
24 23 24 24 24 26 27 27 29 30 31 34 38 41 47 53 76 101 104 121 126 122 145 159 150 126 119 126 156 157 164 167 119 147 167 170 152 152 165 158 154 154 165
26 27 27 28 29 31 32 33 34 35 36 37 39 43 45 46 49 59 67 59 61 67 68 63 86 88 93 86 95 106 106 138 171 160 161 177 180 153 164 155 154 155 146
33 33 33 34 35 36 37 38 40 41 44 45 45 47 49 50 52 54 64 60 73 67 65 65 67 67 69 69 76 77 79 80 75 82 69 69 64 69 75 80 86 93 94
36 38 38 39 41 43 45 44 45 47 49 49 51 51 54 54 58 66 69 78 80 73 70 67 66 65 65 65 65 66 66 66 67 63 65 67 67 67 67 72 75 78 81
41 42 45 45 44 48 50 52 51 52 54 56 58 58 60 61 70 72 82 91 87 80 71 67 66 64 63 62 61 59 58 55 53 50 49 47 44 65 60 66 70 71 73
Wind_Direction
269 267 271 272 278 280 277 278 280 272 265 258 247 255 243 241 234 275 230 233 227 244 247 230 242 237 265 274 254 281 266 269 275 269 282 286 284 285 276 277 273 278 279
264 266 263 268 273 278 282 286 288 282 267 279 258 238 233 234 229 205 223 214 203 218 252 234 227 234 246 264 266 263 269 263 270 278 277 279 282 272 273 278 285 277 278
264 261 262 267 272 275 281 282 289 281 288 313 269 256 275 261 204 218 210 207 219 217 235 245 264 250 245 238 275 253 272 266 272 271 259 268 280 272 269 278 286 277 279
255 261 263 265 274 277 285 284 285 292 293 247 238 234 275 243 203 212 215 223 225 221 219 227 247 247 242 259 245 259 263 264 264 266 272 267 276 264 280 273 277 291 277
256 256 261 267 272 280 287 280 278 316 306 312 302 256 304 297 219 205 213 230 224 235 243 237 242 237 236 242 241 253 254 256 257 263 270 272 268 275 267 278 278 284 282
252 254 259 263 271 284 293 308 290 302 322 329 305 241 238 297 223 205 206 212 216 216 250 250 250 222 238 279 253 253 249 252 255 264 273 267 259 273 260 273 284 276 282
250 251 253 254 268 275 284 276 289 298 328 320 347 326 266 297 218 198 206 216 225 228 227 239 240 254 242 241 236 257 249 260 255 258 263 264 271 276 263 271 267 289 280
249 247 250 251 258 265 270 258 268 256 275 299 245 242 245 279 203 200 207 213 221 228 245 231 233 259 245 230 252 262 286 258 260 263 266 270 270 264 264 276 278 282 287
255 246 247 249 254 258 259 268 267 250 261 232 220 212 195 199 211 203 212 235 217 220 223 247 242 229 244 267 241 246 251 281 260 264 266 270 271 274 276 266 267 284 281
255 252 244 244 251 248 246 248 257 267 270 229 218 218 195 223 196 203 212 217 222 213 238 236 255 222 222 229 259 250 281 275 261 262 261 270 268 271 269 275 276 267 278
274 257 246 245 246 244 243 239 236 248 257 219 234 207 193 195 205 213 222 221 227 226 227 243 238 236 244 247 241 252 280 256 266 262 271 273 276 275 272 277 278 275 276
267 272 251 245 244 241 245 239 240 248 234 226 214 198 194 197 204 223 216 236 212 227 237 237 233 235 243 228 253 271 251 271 264 265 267 260 264 263 266 274 271 276 277
271 273 272 267 248 242 240 240 235 227 232 229 203 199 204 201 220 215 210 223 242 222 225 234 235 240 228 253 234 262 267 278 251 252 255 277 268 279 272 268 278 265 281
272 269 269 271 264 243 245 237 233 223 198 231 216 209 208 209 207 214 229 224 223 232 221 244 230 234 231 228 269 236 249 273 273 268 270 281 271 265 287 275 282 285 271
271 266 272 273 272 239 245 243 247 233 204 223 203 246 214 212 219 225 231 223 235 261 245 231 243 263 247 243 271 270 251 270 246 275 271 258 261 266 275 267 270 285 276
20 9 269 263 258 249 310 235 242 231 213 222 212 209 238 221 228 229 220 232 236 245 227 236 238 265 256 256 249 257 263 263 244 256 269 267 271 264 276 277 265 270 282
12 9 360 349 322 274 337 241 247 226 234 218 240 212 216 252 221 254 236 247 227 237 256 246 266 246 244 272 265 266 268 274 246 274 270 261 265 260 277 281 284 268 285
1 348 331 336 322 291 279 322 235 270 239 235 223 226 233 250 238 263 236 251 237 259 231 262 230 251 267 250 245 262 243 260 262 280 276 281 254 266 262 281 267 285 281
329 323 315 310 306 305 271 257 246 235 247 231 232 229 227 248 241 239 268 268 269 239 242 252 271 270 267 267 244 273 255 259 273 277 262 270 279 259 274 280 274 267 279
321 315 309 305 301 295 291 292 292 274 239 243 245 234 240 243 245 248 237 247 257 259 256 259 253 255 266 250 269 267 269 268 271 261 274 276 275 275 262 271 271 278 275
305 303 302 305 303 297 291 282 285 279 278 284 259 249 240 242 242 245 250 256 253 255 248 257 259 258 262 251 259 263 269 268 265 271 256 274 269 272 276 267 267 275 273
301 305 305 303 301 299 295 292 290 282 285 279 278 280 278 274 258 248 256 253 256 257 253 250 254 260 262 263 260 256 257 262 266 268 262 262 270 267 265 269 269 271 273
295 295 298 297 297 299 291 297 296 290 285 282 279 274 275 279 280 269 265 300 298 281 283 293 270 269 269 268 268 267 264 260 258 260 264 262 262 267 266 266 268 268 267
300 301 300 301 300 301 302 302 304 301 302 297 284 289 284 296 296 289 318 288 325 317 308 300 292 291 287 285 277 275 273 271 271 268 264 260 257 253 252 252 252 254 254
299 303 301 301 302 304 305 301 301 302 306 300 300 290 300 299 303 315 316 321 324 318 311 305 299 296 292 288 285 282 279 277 274 273 269 264 261 257 249 249 249 250 251
297 299 301 301 297 303 306 305 304 305 307 307 308 306 307 307 317 316 321 324 324 318 309 304 300 296 294 292 290 289 287 286 284 281 276 272 268 254 247 244 245 245 246